Wrangell, AK

1:40 AM AKST on January 24, 2017 (GMT -0900)
Wrangell

Weather History for PAWG - November, 2012

Change the Weather History Date:

Sunday, November 4, 2012

  Actual Average Record
Temperature  
Mean Temperature 46 °F -  
Max Temperature 50 °F 44 °F 57 °F (1949)
Min Temperature 42 °F 35 °F 10 °F (1956)
Degree Days  
Heating Degree Days 19    
Moisture  
Dew Point 38 °F    
Average Humidity 76    
Maximum Humidity 87    
Minimum Humidity 66    
Precipitation  
Precipitation 0.00 in - - ()
Sea Level Pressure  
Sea Level Pressure 29.33 in    
Wind  
Wind Speed 16 mph (ESE)    
Max Wind Speed 34 mph    
Max Gust Speed 52 mph    
Visibility 8 miles    
Events      
Averages and records for this station are not official NWS values.
T = Trace of Precipitation, MM = Missing Value Source: NWS Daily Summary

Daily Weather History Graph

Daily Weather History Graph

Search for Another Location

Airport or City:

Trip Planner

Search our weather history database for the weather conditions in past years. The results will help you decide how hot, cold, wet, or windy it might be!

Date:

Astronomy

Nov. 04, 2012 Rise Set
Actual Time 7:06 AM AKST 3:59 PM AKST
Civil Twilight 6:25 AM AKST 4:40 PM AKST
Nautical Twilight 5:40 AM AKST 5:25 PM AKST
Astronomical Twilight 4:56 AM AKST 6:08 PM AKST
Moon 8:35 PM AKST (11/4) 12:06 PM AKST (11/4)
Length of Visible Light 10h 14m
Length of Day
8h 53m
Waning Gibbous, 70% of the Moon is Illuminated
Nov 4
Waning Gibbous
Nov 6
Last Quarter
Nov 13
New
Nov 20
First Quarter
Nov 28
Full

Hourly Weather History & Observations

Time (AKST) Temp. Windchill Dew Point Humidity Pressure Visibility Wind Dir Wind Speed Gust Speed Precip Events Conditions
12:16 AM 44.6 °F 37.4 °F 37.4 °F 76% 29.76 in 10.0 mi ESE 16.1 mph 26.5 mph N/A   Overcast
12:36 AM 44.6 °F 37.8 °F 37.4 °F 76% 29.76 in 10.0 mi ESE 15.0 mph 23.0 mph N/A   Overcast
12:56 AM 44.6 °F 37.4 °F 37.4 °F 76% 29.76 in 10.0 mi ESE 16.1 mph 23.0 mph N/A   Overcast
1:16 AM 44.6 °F 38.4 °F 37.4 °F 76% 29.76 in 10.0 mi ESE 12.7 mph - N/A   Mostly Cloudy
1:36 AM 46.4 °F 41.1 °F 37.4 °F 71% 29.77 in 10.0 mi East 11.5 mph - N/A   Overcast
1:56 AM 44.6 °F 38.1 °F 37.4 °F 76% 29.75 in 10.0 mi ESE 13.8 mph 17.3 mph N/A   Mostly Cloudy
1:16 AM 46.4 °F 39.8 °F 35.6 °F 66% 29.75 in 10.0 mi SE 16.1 mph - N/A   Mostly Cloudy
1:36 AM 46.4 °F 41.1 °F 35.6 °F 66% 29.74 in 10.0 mi SSE 11.5 mph 20.7 mph N/A   Mostly Cloudy
1:56 AM 46.4 °F 41.1 °F 35.6 °F 66% 29.72 in 10.0 mi ESE 11.5 mph - N/A   Mostly Cloudy
2:16 AM 44.6 °F 38.8 °F 37.4 °F 76% 29.70 in 10.0 mi ESE 11.5 mph - N/A   Mostly Cloudy
2:36 AM 44.6 °F 38.8 °F 37.4 °F 76% 29.70 in 10.0 mi ESE 11.5 mph 17.3 mph N/A   Overcast
2:56 AM 46.4 °F 39.5 °F 35.6 °F 66% 29.67 in 10.0 mi SE 17.3 mph 25.3 mph N/A   Overcast
3:16 AM 46.4 °F 39.0 °F 35.6 °F 66% 29.67 in 10.0 mi SE 19.6 mph 27.6 mph N/A   Mostly Cloudy
3:36 AM 44.6 °F 37.2 °F 35.6 °F 71% 29.66 in 10.0 mi SE 17.3 mph 21.9 mph N/A   Mostly Cloudy
3:56 AM 44.6 °F 36.6 °F 35.6 °F 71% 29.64 in 10.0 mi SE 19.6 mph 24.2 mph N/A   Overcast
4:16 AM 44.6 °F 36.9 °F 35.6 °F 71% 29.63 in 10.0 mi SE 18.4 mph 26.5 mph N/A   Mostly Cloudy
4:36 AM 44.6 °F 38.8 °F 37.4 °F 76% 29.61 in 10.0 mi ESE 11.5 mph 23.0 mph N/A   Mostly Cloudy
4:56 AM 44.6 °F 38.1 °F 37.4 °F 76% 29.58 in 10.0 mi ESE 13.8 mph - N/A   Mostly Cloudy
5:16 AM 44.6 °F 38.4 °F 37.4 °F 76% 29.56 in 10.0 mi ESE 12.7 mph - N/A   Overcast
5:36 AM 44.6 °F 38.1 °F 37.4 °F 76% 29.54 in 10.0 mi ESE 13.8 mph 18.4 mph N/A   Overcast
5:56 AM 44.6 °F 38.1 °F 37.4 °F 76% 29.52 in 8.0 mi ESE 13.8 mph 19.6 mph N/A   Overcast
6:16 AM 42.8 °F 37.0 °F 37.4 °F 81% 29.49 in 8.0 mi East 10.4 mph - N/A   Overcast
6:36 AM 42.8 °F 37.0 °F 37.4 °F 81% 29.47 in 8.0 mi East 10.4 mph - N/A   Overcast
6:56 AM 42.8 °F 37.0 °F 37.4 °F 81% 29.43 in 6.0 mi East 10.4 mph - N/A   Overcast
7:16 AM 42.8 °F 36.2 °F 37.4 °F 81% 29.40 in 8.0 mi East 12.7 mph - N/A   Overcast
7:36 AM 42.8 °F 37.5 °F 37.4 °F 81% 29.37 in 8.0 mi East 9.2 mph - N/A   Overcast
7:56 AM 42.8 °F 38.0 °F 37.4 °F 81% 29.34 in 10.0 mi East 8.1 mph - N/A   Overcast
8:16 AM 42.8 °F 37.0 °F 37.4 °F 81% 29.30 in 10.0 mi ENE 10.4 mph - N/A   Overcast
8:36 AM 42.8 °F 37.0 °F 37.4 °F 81% 29.27 in 10.0 mi East 10.4 mph - N/A   Overcast
8:56 AM 44.6 °F 38.4 °F 39.2 °F 81% 29.23 in 10.0 mi East 12.7 mph - N/A   Overcast
9:16 AM 46.4 °F 40.7 °F 39.2 °F 76% 29.20 in 10.0 mi East 12.7 mph 17.3 mph N/A   Overcast
9:36 AM 46.4 °F 41.9 °F 39.2 °F 76% 29.17 in 10.0 mi ENE 9.2 mph - N/A   Overcast
9:56 AM 46.4 °F 40.4 °F 39.2 °F 76% 29.13 in 10.0 mi ESE 13.8 mph 20.7 mph N/A   Mostly Cloudy
10:16 AM 48.2 °F - 41.0 °F 76% 29.10 in 10.0 mi ESE 16.1 mph - N/A   Mostly Cloudy
10:36 AM 50.0 °F - 41.0 °F 71% 29.10 in 10.0 mi East 11.5 mph 20.7 mph N/A   Mostly Cloudy
10:56 AM 46.4 °F 40.1 °F 41.0 °F 81% 29.07 in 10.0 mi East 15.0 mph 18.4 mph N/A   Overcast
11:16 AM 46.4 °F 41.5 °F 41.0 °F 81% 29.04 in 10.0 mi East 10.4 mph - N/A   Overcast
11:36 AM 46.4 °F 41.1 °F 42.8 °F 87% 29.03 in 10.0 mi East 11.5 mph - N/A   Overcast
11:56 AM 46.4 °F 41.5 °F 42.8 °F 87% 29.02 in 5.0 mi East 10.4 mph - N/A   Overcast
12:16 PM 50.0 °F - 42.8 °F 76% 29.03 in 3.0 mi SE 15.0 mph 27.6 mph N/A   Overcast
12:36 PM 50.0 °F - 42.8 °F 76% 29.04 in 3.0 mi ESE 12.7 mph 32.2 mph N/A   Overcast
12:56 PM 50.0 °F - 42.8 °F 76% 29.05 in 7.0 mi SSE 17.3 mph 40.3 mph N/A   Overcast
1:16 PM 50.0 °F - 41.0 °F 71% 29.04 in 7.0 mi ESE 12.7 mph 33.4 mph N/A   Overcast
1:36 PM 48.2 °F - 41.0 °F 76% 29.03 in 7.0 mi SE 19.6 mph 32.2 mph N/A   Overcast
1:56 PM 48.2 °F - 41.0 °F 76% 29.01 in 7.0 mi SE 26.5 mph 39.1 mph N/A   Overcast
2:16 PM 48.2 °F - 41.0 °F 76% 29.02 in 7.0 mi ESE 15.0 mph 31.1 mph N/A   Overcast
2:36 PM 48.2 °F - 41.0 °F 76% 29.00 in 7.0 mi ESE 23.0 mph 31.1 mph N/A   Overcast
2:56 PM 48.2 °F - 39.2 °F 71% 29.00 in 8.0 mi ESE 20.7 mph 42.6 mph N/A   Overcast
3:16 PM 46.4 °F 38.1 °F 39.2 °F 76% 29.01 in 8.0 mi ESE 24.2 mph 32.2 mph N/A   Overcast
3:36 PM 46.4 °F 38.1 °F 39.2 °F 76% 29.02 in 8.0 mi ESE 24.2 mph 36.8 mph N/A   Overcast
3:56 PM 46.4 °F 39.0 °F 39.2 °F 76% 29.04 in 5.0 mi ESE 19.6 mph 32.2 mph N/A   Overcast
4:16 PM 46.4 °F 38.5 °F 39.2 °F 76% 29.04 in 5.0 mi ESE 21.9 mph 32.2 mph N/A   Overcast
4:36 PM 46.4 °F 37.9 °F 39.2 °F 76% 29.04 in 5.0 mi ESE 25.3 mph 35.7 mph N/A   Overcast
4:56 PM 46.4 °F 37.4 °F 39.2 °F 76% 29.04 in 6.0 mi ESE 28.8 mph 40.3 mph N/A   Overcast
5:16 PM 46.4 °F 38.1 °F 39.2 °F 76% 29.07 in 6.0 mi ESE 24.2 mph 42.6 mph N/A   Overcast
5:36 PM 46.4 °F 37.4 °F 39.2 °F 76% 29.08 in 6.0 mi ESE 28.8 mph 38.0 mph N/A   Overcast
5:56 PM 44.6 °F 35.1 °F 39.2 °F 81% 29.09 in 5.0 mi SE 27.6 mph 43.7 mph N/A   Overcast
6:16 PM 46.4 °F 36.5 °F 39.2 °F 76% 29.09 in 5.0 mi SE 34.5 mph 51.8 mph N/A   Overcast
6:36 PM 46.4 °F 37.2 °F 39.2 °F 76% 29.10 in 5.0 mi ESE 29.9 mph 44.9 mph N/A   Overcast
6:56 PM 44.6 °F 35.5 °F 39.2 °F 81% 29.14 in 5.0 mi SE 25.3 mph 50.6 mph N/A   Overcast
7:16 PM 46.4 °F 37.5 °F 39.2 °F 76% 29.16 in 5.0 mi SE 27.6 mph 41.4 mph N/A   Overcast
7:36 PM 44.6 °F 35.9 °F 37.4 °F 76% 29.20 in 5.0 mi ESE 23.0 mph 38.0 mph N/A   Overcast
7:56 PM 44.6 °F 35.9 °F 39.2 °F 81% 29.22 in 5.0 mi ESE 23.0 mph 33.4 mph N/A   Overcast
8:16 PM 44.6 °F 36.1 °F 37.4 °F 76% 29.26 in 5.0 mi SSE 21.9 mph 32.2 mph N/A   Overcast
8:36 PM 44.6 °F 36.6 °F 37.4 °F 76% 29.29 in 5.0 mi SE 19.6 mph 28.8 mph N/A   Overcast
8:56 PM 44.6 °F 37.2 °F 37.4 °F 76% 29.33 in 5.0 mi SSE 17.3 mph 33.4 mph N/A   Overcast
9:16 PM 44.6 °F 38.8 °F 37.4 °F 76% 29.37 in 5.0 mi SSE 11.5 mph 29.9 mph N/A   Overcast
9:36 PM 44.6 °F 38.1 °F 37.4 °F 76% 29.41 in 5.0 mi SE 13.8 mph 18.4 mph N/A   Overcast
9:56 PM 44.6 °F 36.1 °F 37.4 °F 76% 29.44 in 5.0 mi South 21.9 mph 33.4 mph N/A   Overcast
10:16 PM 44.6 °F 38.4 °F 37.4 °F 76% 29.49 in 8.0 mi South 12.7 mph 19.6 mph N/A   Overcast
10:36 PM 44.6 °F 37.4 °F 37.4 °F 76% 29.51 in 7.0 mi SSE 16.1 mph 25.3 mph N/A   Overcast
10:56 PM 44.6 °F 36.9 °F 37.4 °F 76% 29.52 in 8.0 mi SSE 18.4 mph 23.0 mph N/A   Overcast